Showing default

FLOCK 4Q 26, 58284

Orbit data source: Space-Track

FLOCK 4Q 26, 58284 is a payload satellite owned by Planet (US) in SSO that was launched on Sat, 11 Nov 2023 UTC via an FALCON 9 launch vehicle from the Air Force Western Test Range (AFWTR). Payload-class satellites include a variety of spacecraft equipped with specific instruments for various scientific and technological missions. These include communications satellites like Starlink; space stations such as the ISS; scientific satellites like the Hubble; Earth observation satellites from companies like Planet Labs, Umbra, and HawkEye 360; GPS; miniature CubeSats for education and research; and military/defense satellites.

Loading next visibility...
Identifier
58284, 2023-174AE
Orbit
SSO
Country
Flag of USUS
Related business
Manufacturer
Planet
Mission
Operational Commercial Imaging
Bus & Motor
CUBESAT 3U, Unknown motor
Mass
5.7 kg wet, 5.7 kg dry
Launch date (UTC)
2023-11-11 (2 years ago)
Launch vehicle
FALCON 9
Launch site
Air Force Western Test Range (AFWTR)
Object type
Payload
Rocket body
Debris
Shape & HBR
Box + 2 Pan, 1.0 m
Radar Cross Section
0.072 m², Medium (>0.1 m² and < 1m²)

Expand to show TLE details & history
Last TLE update: 15 hours ago

TLE from 15 hours ago
0 FLOCK 4Q 26
1 58284U 23174AE  25291.26381957  .00035264  00000-0  84512-3 0  9997
2 58284  97.4094  12.7122 0006306 306.1276  53.9386 15.41314497108379
Epoch: 2025-10-18T06:19Z
TLE epoch observation values (Epoch: 2025-10-18T06:19:54.010Z)
Latitude
-0.0001°
Longitude
-109.26017°
Altitude
442.817 km
Speed
7.648 km/s
True Right ascension
00h 50m 50s
True Declination
0° 00' 00"
Sunlit
Object was in full shadow at epoch
Visualization orbit readout
Latitude
Unknown
Longitude
Unknown
Altitude
Unknown
Speed
Unknown
Apparent Right ascension
Unknown
Apparent Declination
Unknown
Sunlit
N/A
Visualization observer readout
Local Sidereal Time
16:11:55
Azimuth
Unknown
Elevation
Unknown
Doppler factor
Unknown
Orbital elements
Apogee altitude
443.465 km
Perigee altitude
434.867 km
Semi-major axis
6,817.303 km
Eccentricity
0.00063
Inclination
97.4094°
RAAN
12.7122°
Arg. of periapsis
306.1276°
True anomaly
53.99704°
Mean anomaly
53.9386°
Eccentric anomaly
53.96782°
Mean motion
3.85589 °/min
Orbital period
93.36 mins
BSTAR
0.00084512
Loading maneuver chart data...
Computing Atmospheric mass density...
Loading historical data...
Loading historical data...
Loading historical data...
Loading historical data...
Loading historical data...
Loading historical data...
Loading historical data...

Documentation

Showing up to 5 results
|